Location: Fernhill
(41.0167°S, 175.6333°E)
Time: 15:53:36
(UTC+00:00)

Meteor 2-6 Rocket - Pass Details

Date: 23 February 2026
Orbit: 804 x 913 km, 81.3° (Epoch: 7 March)

Event Time Altitude Azimuth Distance (km) Brightness Sun altitude
Exits shadow 08:29:53 20° 83° (E) 1,963 5.5 -14.9°
Maximum altitude 08:30:47 21° 95° (E) 1,934 5.6 -15.1°
Drops below altitude 10° 08:35:01 10° 140° (SE) 2,611 6.6 -15.8°
Sets 08:38:07 0° 155° (SSE) 3,572 7.5 -16.3°
